Vertical_Velocity
-9 -28 29 5 6 -11 -9 0 -9 -8 4 15 -5 -18 3 -1 -9 -2 2 -1 -2 9 3 -3 -3 4 -2 -1 -0 -6 5 3 -1 5 1 2 2 1 2 -6 -6 -3 -0 -2
-1 -20 19 -11 6 -4 -4 8 -9 -1 4 21 -0 -12 2 -4 -11 -2 1 1 1 -1 0 3 0 -3 3 2 2 -8 6 1 6 7 -2 -1 2 3 0 5 3 -1 1 -4
-18 7 -10 13 -8 4 7 1 -1 -6 18 6 -4 -20 -2 5 -12 5 -4 2 0 1 2 -1 -0 -1 2 1 -0 -7 1 7 5 6 1 -1 3 2 3 3 1 4 -1 -1
-21 2 -4 -13 3 13 -8 14 8 -3 10 -19 33 -58 -13 2 -6 -3 8 -3 -0 5 1 -4 4 -1 2 8 6 -10 -2 2 2 8 -1 -1 0 1 2 1 -3 -3 1 0
-24 -2 1 -5 -1 10 -20 21 -14 14 2 6 -2 -18 23 10 -7 0 -7 -2 -8 2 -24 -10 -7 -3 0 3 1 -12 -1 -1 0 9 1 -2 2 -1 2 -0 -0 3 -2 0
-14 3 -1 2 -8 6 15 4 4 22 2 -31 21 -2 -0 -3 8 4 -7 -11 -1 -3 6 1 5 0 11 -1 -6 -4 -1 5 -1 11 -1 -0 1 -1 4 -1 1 2 -2 -0
7 2 -1 7 -4 5 17 5 -10 22 -13 -27 15 -19 -2 -2 1 2 22 -2 0 6 5 6 4 -4 3 9 6 -3 -12 9 1 10 0 -2 4 3 0 2 5 1 -0 -1
-16 -3 -1 16 3 8 -6 -7 1 -13 -7 2 3 -13 21 6 9 41 51 9 6 15 4 5 -3 -4 1 7 4 5 5 -5 0 5 -3 1 1 0 1 4 2 -2 -4 -2
-8 -8 6 -3 -8 -5 9 -23 42 1 6 13 3 8 5 15 4 10 8 14 8 1 1 -0 -3 3 -4 -4 -2 -4 -4 1 -1 1 -6 4 -0 -1 5 5 2 -3 -1 0
2 -14 -5 -0 3 2 3 6 2 -1 1 1 6 6 -11 21 -13 16 -6 5 -1 -3 2 5 2 -0 8 -1 -2 -4 -2 -3 13 2 2 1 2 3 1 1 -1 -3 -1 -0
-2 0 8 2 11 11 -7 -5 4 8 -5 32 10 33 -1 39 28 -10 8 6 6 4 5 -5 -2 -1 4 3 3 2 1 2 7 5 5 -2 3 1 2 -1 -2 -5 0 0
0 -7 -3 1 5 -7 3 4 -0 1 5 12 21 13 17 14 21 -9 22 6 -5 -4 -3 -11 2 -0 4 -3 -2 -1 1 3 1 -2 -0 -0 6 4 -1 5 -3 0 1 -2
-5 0 -0 3 1 -0 5 -4 4 1 3 1 12 49 3 4 19 9 -1 -1 1 1 -2 -2 1 2 7 -1 -2 2 -1 3 -2 -2 -2 -1 14 -3 -1 1 -2 2 -1 -1
-6 4 1 2 2 2 2 4 3 -6 8 7 28 -9 15 16 4 -6 -2 0 2 -3 -0 -2 0 -2 5 -1 0 2 -4 -0 2 -2 0 4 3 11 -0 -3 0 1 -3 0
-5 -9 -6 -3 -3 0 1 -7 2 9 21 17 16 -20 13 2 -2 2 1 1 -0 -2 -1 -0 3 3 1 1 -3 -3 2 0 1 1 2 2 -3 10 -2 4 -0 -1 -3 -0
-9 1 12 -12 1 5 4 7 -2 12 12 -0 -3 0 13 -2 -6 -6 -2 -0 -2 -3 -1 -4 -0 1 -1 -2 -1 4 3 -0 -0 1 0 4 4 10 -1 -3 2 0 -2 5
-5 28 12 17 29 20 32 26 10 4 14 8 -8 -2 -0 -3 -7 -6 -5 -4 -1 1 0 -1 -2 -0 2 0 2 1 2 1 -1 -1 1 -2 2 8 -3 -2 1 -4 -1 1
5 4 -1 -7 10 -3 -4 3 -2 -15 -10 -1 1 3 4 -2 -6 -1 -2 1 1 -1 -0 0 1 0 0 1 1 2 1 0 -0 1 1 -4 1 9 -2 -2 -1 -4 0 2
-4 6 -0 1 11 3 2 1 -2 3 5 4 3 1 -5 -4 -4 1 -0 2 1 0 1 -0 1 -0 -0 1 2 0 0 -1 0 0 2 -1 7 13 -2 -3 0 -3 -1 -1
0 7 -4 -9 5 0 -3 2 5 3 2 -1 -2 -2 -2 -2 -1 -3 -1 2 1 1 1 -0 2 2 -1 -1 -0 1 1 1 1 -2 -0 -5 -1 -1 1 -7 1 -0 -1 -1
9 -1 1 0 -2 -2 2 3 -1 -2 0 -1 -1 0 -3 -2 0 2 2 0 1 0 -2 2 2 0 0 0 -2 -1 -2 11 3 -2 -1 12 -7 -3 -1 -3 6 -2 0 0
1 5 0 -1 0 1 -2 -1 1 -0 -2 -3 -3 -4 -4 -4 -1 -1 -1 -2 -1 1 -1 0 -0 1 2 -0 1 -2 -3 8 30 5 2 2 0 2 -3 -2 27 -3 -1 1
3 -1 1 0 6 4 3 3 -3 -4 -6 -5 -3 -2 -4 -3 -2 -2 -2 0 1 -1 -2 0 1 4 1 -1 2 0 -0 0 5 11 15 10 -5 9 2 -4 4 0 0 -2
10 8 0 1 -2 2 -2 -5 -4 -4 -5 -5 -3 -2 -1 3 2 1 2 1 1 -0 1 1 -0 -0 2 -1 -0 -1 -1 -2 -4 1 2 9 10 29 1 18 -2 12 1 -1
-7 -3 -3 -4 -2 -2 -4 -2 -3 -2 -2 -2 -3 -1 0 3 1 0 1 -0 -1 1 1 1 0 -1 -1 1 -0 0 -1 -2 -1 2 -0 3 7 16 10 20 10 17 10 4
-4 -2 -2 -5 -4 -3 -3 -4 -3 -1 -4 4 -1 -0 -0 0 1 -1 -0 -1 -1 -0 1 2 1 0 0 0 1 0 0 1 -1 -4 2 4 1 -3 3 9 12 14 18 16
Height
5657 5664 5666 5659 5653 5651 5652 5647 5646 5653 5657 5648 5647 5646 5653 5658 5657 5664 5666 5670 5676 5684 5690 5694 5698 5702 5705 5710 5715 5718 5723 5728 5732 5738 5740 5741 5742 5741 5740 5738 5738 5738 5739 5739
5647 5653 5651 5643 5640 5633 5635 5632 5633 5635 5641 5635 5634 5634 5641 5643 5646 5650 5652 5658 5666 5673 5678 5684 5688 5693 5695 5700 5706 5710 5715 5720 5724 5731 5731 5733 5734 5733 5732 5732 5732 5731 5732 5731
5633 5636 5632 5625 5621 5618 5614 5614 5617 5618 5625 5620 5622 5621 5631 5637 5635 5639 5641 5646 5654 5661 5667 5674 5677 5681 5684 5691 5696 5702 5707 5711 5716 5721 5722 5724 5725 5724 5725 5725 5725 5725 5725 5725
5620 5614 5607 5605 5603 5602 5596 5604 5604 5606 5609 5607 5613 5610 5621 5627 5625 5628 5634 5634 5643 5653 5657 5660 5665 5671 5678 5684 5688 5693 5699 5703 5707 5711 5715 5715 5715 5716 5717 5717 5716 5716 5719 5719
5604 5593 5588 5584 5585 5588 5584 5595 5593 5597 5598 5599 5602 5603 5616 5616 5617 5620 5622 5627 5634 5640 5641 5646 5653 5661 5669 5676 5680 5685 5690 5694 5699 5702 5707 5705 5706 5708 5708 5708 5709 5710 5711 5712
5576 5578 5571 5572 5570 5570 5577 5581 5585 5586 5590 5587 5597 5599 5605 5610 5613 5614 5616 5617 5624 5629 5636 5641 5651 5657 5663 5664 5668 5675 5682 5687 5692 5693 5696 5695 5696 5700 5699 5701 5702 5704 5704 5705
5561 5561 5560 5561 5558 5562 5568 5573 5577 5581 5582 5581 5592 5593 5599 5602 5607 5611 5609 5614 5618 5623 5628 5636 5644 5648 5655 5661 5666 5669 5671 5680 5682 5684 5686 5686 5687 5690 5691 5694 5695 5697 5697 5697
5544 5550 5545 5552 5552 5555 5559 5566 5571 5576 5580 5583 5586 5587 5593 5594 5600 5595 5602 5608 5611 5619 5624 5631 5635 5642 5647 5653 5657 5661 5665 5671 5672 5674 5676 5677 5680 5681 5684 5687 5688 5689 5690 5690
5534 5537 5541 5542 5545 5549 5552 5554 5567 5573 5576 5579 5581 5584 5586 5588 5589 5589 5594 5600 5606 5612 5617 5622 5628 5633 5638 5643 5647 5653 5656 5659 5661 5665 5667 5668 5671 5673 5678 5680 5681 5682 5683 5683
5530 5531 5535 5538 5538 5542 5546 5553 5561 5566 5572 5576 5579 5582 5581 5582 5586 5589 5590 5592 5603 5609 5612 5616 5621 5626 5631 5635 5641 5642 5646 5650 5655 5656 5657 5660 5664 5667 5669 5671 5674 5675 5674 5676
5525 5528 5534 5533 5537 5541 5546 5551 5557 5565 5569 5572 5577 5577 5578 5583 5586 5582 5585 5595 5600 5603 5606 5610 5614 5619 5624 5627 5631 5636 5641 5644 5647 5648 5651 5654 5658 5660 5661 5664 5665 5667 5667 5668
5522 5524 5528 5532 5535 5540 5543 5551 5558 5564 5568 5567 5570 5578 5574 5578 5579 5581 5583 5588 5591 5596 5601 5604 5608 5611 5617 5620 5624 5627 5633 5637 5640 5642 5646 5649 5651 5653 5656 5658 5659 5660 5661 5661
5521 5524 5527 5532 5536 5540 5544 5550 5556 5561 5564 5567 5570 5574 5572 5574 5574 5578 5581 5585 5589 5591 5595 5599 5602 5605 5611 5615 5617 5621 5625 5630 5632 5636 5639 5642 5645 5647 5651 5652 5654 5655 5655 5654
5520 5525 5527 5531 5534 5539 5544 5549 5554 5558 5563 5565 5568 5567 5567 5573 5573 5573 5577 5582 5584 5587 5590 5594 5596 5599 5603 5608 5611 5615 5619 5622 5627 5630 5633 5636 5639 5641 5645 5647 5648 5649 5649 5649
5524 5526 5526 5529 5533 5537 5544 5546 5551 5557 5562 5563 5562 5566 5571 5570 5572 5574 5576 5579 5581 5583 5586 5590 5591 5594 5597 5601 5605 5608 5612 5616 5621 5625 5627 5630 5633 5635 5638 5641 5642 5644 5644 5644
5525 5527 5526 5521 5527 5537 5542 5546 5550 5555 5556 5556 5561 5565 5569 5569 5572 5574 5574 5577 5578 5579 5582 5585 5588 5590 5592 5595 5598 5601 5606 5610 5614 5618 5620 5623 5626 5629 5632 5634 5636 5638 5639 5639
5527 5527 5527 5524 5531 5538 5544 5545 5550 5553 5554 5557 5560 5563 5566 5569 5569 5571 5572 5574 5574 5576 5578 5580 5583 5584 5587 5590 5593 5596 5599 5603 5607 5610 5613 5615 5619 5621 5624 5626 5629 5632 5633 5634
5528 5529 5532 5532 5535 5538 5542 5547 5550 5553 5555 5558 5560 5561 5564 5566 5567 5568 5570 5570 5571 5573 5574 5575 5577 5579 5581 5584 5587 5589 5592 5595 5599 5602 5606 5608 5612 5613 5617 5617 5620 5624 5626 5628
5529 5531 5533 5536 5538 5542 5545 5548 5551 5554 5556 5558 5560 5561 5562 5563 5564 5564 5565 5566 5568 5570 5570 5571 5573 5574 5575 5576 5579 5581 5585 5587 5590 5594 5598 5600 5603 5603 5607 5610 5613 5616 5618 5620
5530 5531 5535 5537 5540 5543 5547 5549 5551 5553 5556 5557 5558 5560 5562 5562 5563 5563 5563 5563 5564 5565 5565 5566 5566 5568 5569 5570 5571 5573 5576 5579 5582 5585 5588 5591 5595 5598 5599 5601 5606 5608 5611 5612
5532 5534 5537 5540 5543 5546 5547 5549 5551 5554 5558 5556 5557 5557 5557 5557 5558 5557 5558 5559 5559 5560 5560 5560 5562 5563 5563 5562 5563 5565 5568 5569 5572 5576 5579 5583 5586 5589 5592 5593 5598 5600 5603 5605
5532 5536 5537 5541 5544 5547 5549 5551 5553 5554 5554 5555 5555 5555 5554 5554 5554 5554 5554 5554 5554 5554 5554 5555 5555 5554 5554 5555 5556 5557 5560 5559 5562 5566 5569 5572 5576 5579 5581 5584 5587 5590 5592 5595
5533 5536 5539 5543 5546 5547 5548 5551 5552 5553 5554 5553 5553 5552 5551 5550 5549 5549 5549 5549 5549 5549 5549 5549 5550 5550 5550 5551 5551 5551 5551 5551 5551 5555 5558 5562 5564 5565 5571 5574 5575 5578 5580 5582
5534 5537 5541 5544 5547 5547 5549 5550 5550 5551 5550 5550 5549 5549 5549 5549 5547 5547 5546 5546 5546 5545 5544 5543 5544 5545 5546 5546 5544 5545 5545 5546 5545 5545 5547 5549 5553 5554 5557 5560 5563 5566 5568 5570
5537 5540 5542 5543 5544 5545 5546 5546 5546 5546 5546 5545 5546 5546 5547 5547 5546 5545 5544 5544 5543 5542 5541 5540 5540 5541 5540 5539 5539 5539 5539 5540 5540 5540 5541 5541 5542 5542 5543 5545 5546 5548 5552 5556
5537 5539 5540 5542 5543 5543 5543 5543 5543 5543 5543 5542 5543 5544 5545 5545 5544 5544 5543 5542 5541 5540 5539 5538 5537 5536 5535 5534 5533 5532 5532 5533 5533 5533 5532 5532 5533 5534 5535 5535 5535 5535 5536 5538